Regional Weather Roundup
Issued by NWS

Home | Current Version | Previous Version | Graphics & Text | Print | Product List | Glossary Off
Versions: 1 2 3 4 5 6 7 8 9 10 11 12 13 14 15 16 17 18 19 20 21 22 23 24 25 26 27 28 29 30 31 32 33 34 35 36 37 38 39 40 41 42 43 44 45 46 47 48 49 50

000
ASUS43 KFSD 231702
RWRSD

WEATHER ROUNDUP FOR SOUTH DAKOTA
NATIONAL WEATHER SERVICE SIOUX FALLS SD
1200 PM CDT SAT JUL 23 2016

NOTE: "FAIR" INDICATES FEW OR NO CLOUDS BELOW 12,000 FEET WITH NO
SIGNIFICANT WEATHER AND/OR OBSTRUCTIONS TO VISIBILITY.


SDZ001>005-009-010-012>017-231800-
NORTHWEST AND NORTH CENTRAL SOUTH DAKOTA

CITY           SKY/WX    TMP DP  RH WIND       PRES   REMARKS
BUFFALO          N/A     81  42  25 NW33G41   29.85S
FAITH            N/A     83  60  45 N31G40    29.83R
MOBRIDGE       PTSUNNY   85  74  69 NW9       29.70F
$$

SDZ012>016-024>037-041>051-057-063-072>074-231800-
SOUTHWEST AND SOUTH CENTRAL SOUTH DAKOTA

CITY           SKY/WX    TMP DP  RH WIND       PRES   REMARKS
RAPID CTY ARPT SUNNY     85  46  25 NW35G45   29.93R
PIERRE         SUNNY     92  68  45 W15       29.70F HX  96
CUSTER         SUNNY     81  47  30 NE9G17    30.07R
ELLSWORTH AFB  SUNNY     84  47  27 NW28G39   29.92R
PHILIP         SUNNY     88  64  44 NW21G33   29.79S
PINE RIDGE     SUNNY     87  60  40 W13       29.92R
WINNER         FAIR      90  64  42 S15       29.78S
$$

SDZ004>011-016>023-039-040-231800-
NORTHEAST SOUTH DAKOTA

CITY           SKY/WX    TMP DP  RH WIND       PRES   REMARKS
ABERDEEN       CLOUDY    81  70  69 S12       29.71S
WATERTOWN      CLOUDY    82  70  66 S10       29.76R
BROOKINGS      MOSUNNY   81  74  79 S18G25    29.77R
SISSETON         N/A     78  70  76 SW6       29.71S
$$

SDZ017-020-022-023-036>040-048>070-231800-
SOUTHEAST SOUTH DAKOTA

CITY           SKY/WX    TMP DP  RH WIND       PRES   REMARKS
SIOUX FALLS    CLOUDY    83  75  77 S15       29.79F
HURON          CLOUDY    83  71  67 S24G32    29.72F
CHAMBERLAIN    SUNNY     89  68  50 S15       29.74F
MITCHELL       CLOUDY    84  72  67 S16       29.76F
YANKTON        CLOUDY    88  72  58 S10       29.76F
$$

ABBREVIATIONS USED IN REMARKS
   TC - TEMPERATURE IN CELSIUS
  WCI - WIND CHILL INDEX
   HX - HEAT INDEX
  VSB - VISIBILITY





USA.gov is the U.S. government's official web portal to all federal, state and local government web resources and services.